Vorticity
24 22 16 19 25 23 17 13 16 9 5 16 18 11 30 25 -6 -5 17 -23 -26 1 48 21 42 -21 32 31 10 18 8 19 5 5 20 -10 16 10 5 11 6 18 -15 14 16 13 18 19 17 -3 3 4 7 12
18 23 19 14 14 15 11 18 10 11 14 21 26 19 27 31 -2 -2 14 -11 -18 -28 10 26 4 24 -0 28 -3 -8 15 26 21 2 3 15 -17 16 8 11 12 20 2 6 5 31 0 28 13 14 9 16 13 13
10 12 21 14 8 11 9 14 11 20 27 20 21 27 39 22 10 7 7 6 -26 -12 -23 37 -3 26 6 22 10 6 4 5 -9 0 19 0 16 3 7 1 23 -2 15 3 11 10 10 6 4 4 3 7 -0 -4
7 9 13 -1 9 13 9 5 13 20 13 24 21 37 7 2 25 45 3 -55 10 -21 -15 17 -4 19 13 24 2 18 11 -2 21 8 3 15 7 6 16 1 7 1 11 1 2 9 7 6 6 4 2 3 6 7
8 -1 11 9 2 8 14 6 14 24 12 4 30 -1 10 3 13 46 -7 -9 18 -21 48 -1 12 5 30 7 19 2 20 16 15 -6 -18 24 17 11 16 19 5 9 8 1 2 5 8 9 12 7 5 5 5 9
10 12 12 9 5 12 11 14 3 3 16 26 17 19 6 -4 27 37 15 13 26 -7 25 16 50 19 13 8 5 -13 14 14 19 -6 2 16 12 6 29 13 7 12 13 10 8 12 10 11 8 5 4 6 8 6
5 11 11 14 8 16 11 14 13 21 28 -1 14 17 16 14 61 -15 7 -10 3 0 -45 24 26 68 27 23 15 11 11 14 15 -3 7 11 6 8 -2 11 21 6 5 9 10 9 10 9 9 11 12 10 8 7
17 1 -1 15 10 13 12 5 10 3 15 12 8 8 13 22 52 33 -23 29 -4 -1 -12 3 45 -3 -12 41 -28 22 0 1 5 9 13 6 6 9 6 6 4 6 8 5 6 8 9 8 7 6 8 8 7 11
32 28 37 21 2 18 7 9 10 9 15 16 30 23 18 21 32 6 -32 11 27 16 5 35 7 49 56 23 3 6 9 9 9 3 3 5 7 -1 9 5 9 11 2 5 6 9 11 11 10 11 9 10 12 11
37 44 57 47 22 12 4 13 12 32 37 18 19 25 39 -27 33 40 38 5 6 6 13 12 30 -4 6 -3 2 5 8 1 16 11 23 5 17 7 6 4 9 11 6 7 7 11 11 13 11 10 12 14 15 19
20 11 25 20 23 42 42 20 25 13 18 -42 28 29 33 -22 -28 -38 17 7 24 11 13 14 7 14 23 11 8 -0 4 14 19 20 12 29 11 6 13 10 9 6 3 4 8 8 11 11 13 14 17 21 22 17
14 14 16 2 26 -3 -4 6 -25 -17 28 14 -57 20 36 4 10 18 17 8 16 15 24 10 8 15 20 17 3 19 8 15 9 30 9 18 14 22 11 7 4 6 8 8 8 10 9 15 19 23 24 20 10 7
7 4 8 4 18 16 20 -17 -3 40 22 -3 -28 -20 5 14 14 10 19 15 21 19 9 16 23 16 22 11 15 15 21 13 5 18 16 27 18 13 14 11 13 13 13 16 16 20 20 24 23 19 11 3 6 11
-2 9 -0 0 11 8 11 -18 -1 31 -80 -16 6 15 13 9 13 28 18 16 22 16 7 12 34 2 26 -1 12 9 13 9 2 9 1 9 12 10 11 10 11 14 12 14 14 19 23 17 10 5 7 11 11 7
14 16 21 -2 7 20 25 8 -11 13 13 -3 6 11 21 22 7 19 5 19 31 26 15 8 1 10 7 4 8 10 14 11 17 14 13 18 12 11 13 13 11 12 13 21 24 23 13 8 6 8 12 8 9 8
14 -8 6 -6 -0 4 14 10 3 0 -1 3 17 24 8 11 10 13 9 5 3 19 8 0 8 16 10 3 16 13 13 16 17 13 9 7 8 11 10 14 18 19 17 17 16 14 9 7 11 10 8 8 8 8
6 36 6 5 1 -6 -10 -7 -9 -12 8 15 16 9 19 13 9 9 8 12 3 21 3 -4 11 19 12 15 10 13 8 15 9 1 3 16 18 21 23 18 15 10 14 13 11 11 8 11 10 9 8 5 7 8
15 10 9 10 13 23 25 15 17 20 31 11 5 12 13 10 12 12 15 18 20 15 3 1 6 8 11 11 15 7 14 20 18 20 28 23 10 10 9 12 7 11 14 11 8 10 12 11 7 7 6 7 7 6
21 22 19 8 17 11 14 24 13 21 16 12 11 13 15 13 16 16 13 9 14 12 9 12 9 21 14 18 13 10 16 18 15 2 7 9 8 7 10 10 9 11 9 9 9 9 6 8 7 5 4 6 6 5
10 16 22 27 28 0 1 25 9 9 5 6 9 13 12 6 9 15 17 22 20 23 15 29 9 12 13 12 8 12 11 7 10 16 18 15 11 8 8 6 9 11 8 3 4 7 9 6 6 3 7 7 8 6
10 10 8 8 29 55 22 20 19 1 1 4 6 12 7 7 7 9 14 6 23 26 0 7 11 8 8 5 6 12 14 8 12 3 10 18 11 10 8 4 3 5 6 7 9 9 6 12 7 7 4 9 6 3
8 7 10 8 14 10 14 16 20 8 20 6 8 10 5 12 15 17 16 19 26 15 2 5 7 9 11 11 5 6 4 6 7 10 10 9 8 7 6 8 10 10 10 9 7 6 10 13 10 7 10 4 7 7
9 10 14 4 -1 5 10 11 4 1 15 12 10 11 10 6 8 8 17 16 5 6 6 8 9 8 7 6 5 8 13 15 11 11 7 7 10 10 11 8 7 12 15 11 9 12 11 11 11 5 6 7 7 5
12 10 6 10 23 21 12 18 16 9 21 10 17 22 10 5 16 21 15 7 10 7 8 10 11 12 13 15 13 12 10 7 8 11 15 15 12 13 14 15 16 15 16 15 13 10 8 8 8 7 7 6 7 11
18 11 8 15 7 9 9 15 18 16 16 19 17 14 12 13 29 17 11 10 10 10 11 12 13 15 15 16 16 16 16 16 15 13 12 11 9 9 9 9 10 11 10 9 8 7 7 8 7 8 10 11 11 12
18 17 20 15 16 15 18 9 9 8 10 10 14 8 10 9 13 15 6 7 7 8 8 8 8 9 10 10 11 12 12 13 14 14 14 14 14 14 14 13 11 10 8 8 8 9 11 12 10 10 11 11 11 11
18 11 10 11 10 6 9 11 12 9 4 10 10 3 10 12 11 9 3 6 7 6 7 7 7 7 7 7 8 8 8 8 9 8 9 9 8 7 7 8 11 11 13 12 11 10 9 9 10 10 10 11 12 13
19 13 11 14 14 11 9 10 5 4 6 4 13 11 14 10 8 4 7 6 6 7 7 7 7 8 9 10 11 12 12 12 12 13 13 14 14 14 13 12 11 9 8 7 7 7 7 9 12 14 15 16 15 15
5 5 5 5 5 5 6 8 9 9 6 11 11 15 8 11 8 11 8 10 11 9 9 10 12 12 11 12 14 15 17 16 15 13 11 11 8 9 8 8 8 7 6 7 12 15 16 16 16 16 16 16 16 17
5 5 5 8 10 11 10 12 10 11 12 12 12 15 13 14 11 12 12 11 11 10 10 14 18 22 19 17 13 12 10 9 9 10 10 8 6 5 5 8 13 17 17 15 15 15 16 16 16 16 16 16 16 15
6 8 10 11 11 11 10 12 11 11 12 12 13 13 13 15 15 12 12 16 21 18 15 12 10 9 10 10 9 7 7 6 6 6 7 11 15 15 14 14 15 15 15 15 15 15 15 16 16 16 17 17 17 17
6 5 7 11 14 10 11 11 9 13 12 12 11 15 20 20 20 20 12 10 11 11 13 11 9 7 8 8 7 7 11 13 14 13 14 15 14 13 12 13 14 14 15 16 16 16 16 16 16 16 17 17 17 16
7 7 8 9 11 11 11 16 11 9 14 14 26 17 9 7 12 12 13 13 10 6 6 10 5 5 12 13 12 13 14 13 12 11 11 12 13 13 15 16 17 18 18 17 17 19 19 20 20 19 18 18 17 16
Height
2731 2741 2751 2761 2770 2780 2790 2800 2809 2821 2832 2841 2851 2861 2872 2885 2896 2910 2927 2935 2944 2953 2960 2964 2975 2979 2988 2994 2999 3009 3019 3021 3027 3033 3037 3039 3043 3047 3049 3052 3054 3057 3060 3061 3063 3064 3063 3062 3063 3065 3066 3066 3068 3070
2743 2750 2759 2768 2777 2786 2794 2804 2814 2822 2830 2838 2845 2856 2868 2881 2894 2909 2920 2929 2941 2949 2952 2957 2964 2972 2980 2990 2999 3005 3011 3017 3022 3028 3030 3035 3038 3041 3043 3047 3050 3054 3054 3054 3057 3056 3055 3056 3058 3060 3062 3064 3065 3066
2756 2762 2769 2777 2785 2793 2800 2809 2817 2824 2829 2837 2845 2855 2867 2881 2896 2906 2917 2933 2939 2945 2945 2957 2962 2967 2975 2981 2994 3001 3006 3012 3017 3021 3028 3029 3033 3036 3038 3042 3045 3048 3049 3050 3052 3051 3052 3054 3056 3058 3059 3060 3061 3062
2768 2773 2779 2786 2793 2799 2806 2813 2820 2826 2833 2841 2849 2861 2873 2886 2896 2906 2916 2932 2941 2947 2950 2954 2960 2965 2970 2978 2989 2998 3006 3011 3014 3017 3024 3024 3027 3030 3033 3037 3039 3042 3045 3045 3045 3047 3049 3050 3052 3053 3055 3056 3056 3056
2777 2782 2787 2793 2799 2805 2812 2819 2825 2831 2839 2848 2857 2867 2878 2888 2897 2907 2917 2929 2945 2956 2954 2957 2959 2964 2969 2977 2986 2993 2998 3003 3007 3012 3020 3021 3022 3026 3027 3031 3033 3034 3037 3038 3038 3042 3044 3046 3048 3048 3049 3049 3050 3050
2785 2789 2794 2799 2805 2810 2816 2823 2831 2838 2845 2852 2861 2869 2879 2887 2896 2907 2921 2930 2940 2948 2954 2956 2956 2960 2965 2972 2979 2988 2994 2997 3000 3005 3010 3018 3017 3022 3022 3024 3028 3030 3033 3036 3037 3038 3041 3042 3042 3043 3043 3043 3043 3043
2788 2793 2799 2804 2810 2816 2823 2830 2836 2842 2849 2856 2865 2874 2882 2890 2898 2910 2921 2934 2942 2949 2952 2951 2946 2955 2961 2962 2966 2979 2984 2988 2995 3001 3007 3010 3014 3015 3016 3018 3022 3024 3029 3031 3033 3034 3035 3036 3036 3037 3037 3037 3036 3035
2789 2795 2801 2807 2813 2820 2827 2834 2841 2847 2854 2862 2870 2880 2888 2896 2904 2913 2927 2935 2941 2945 2950 2951 2948 2953 2954 2957 2964 2965 2978 2984 2991 2997 3001 3004 3008 3010 3011 3013 3017 3020 3024 3025 3026 3028 3029 3029 3029 3029 3029 3028 3028 3027
2791 2795 2801 2809 2816 2823 2832 2839 2846 2852 2860 2869 2880 2888 2898 2906 2911 2919 2925 2933 2931 2941 2946 2947 2944 2947 2954 2959 2964 2970 2976 2978 2988 2991 2995 3001 3002 3004 3005 3008 3012 3015 3017 3019 3019 3020 3021 3021 3022 3021 3021 3020 3020 3019
2802 2804 2807 2812 2818 2826 2835 2843 2850 2859 2868 2876 2884 2894 2898 2908 2916 2921 2929 2932 2931 2934 2940 2943 2947 2948 2955 2958 2962 2969 2974 2979 2981 2986 2991 2993 2995 2999 3001 3004 3007 3010 3012 3012 3011 3011 3013 3013 3013 3013 3013 3013 3012 3012
2820 2822 2824 2826 2828 2834 2844 2851 2858 2866 2874 2881 2892 2895 2901 2907 2916 2924 2926 2925 2928 2934 2939 2942 2946 2950 2955 2960 2966 2971 2974 2977 2979 2983 2986 2987 2989 2993 2997 2999 3000 3002 3003 3004 3004 3005 3004 3005 3005 3005 3005 3004 3005 3007
2836 2837 2840 2843 2848 2853 2859 2867 2874 2881 2887 2889 2897 2904 2911 2915 2922 2926 2929 2930 2932 2936 2938 2942 2947 2951 2955 2961 2966 2970 2972 2975 2977 2979 2981 2980 2984 2988 2990 2992 2993 2994 2994 2995 2996 2997 2996 2997 2997 2997 2998 2999 3001 3002
2852 2854 2856 2859 2863 2868 2872 2879 2885 2891 2896 2901 2904 2906 2912 2919 2923 2927 2929 2931 2931 2931 2935 2941 2947 2952 2956 2961 2965 2969 2969 2972 2973 2973 2973 2975 2978 2981 2983 2984 2985 2985 2986 2987 2988 2989 2990 2990 2990 2992 2993 2995 2996 2996
2864 2866 2869 2872 2876 2881 2885 2889 2892 2899 2901 2903 2908 2912 2917 2921 2924 2924 2926 2929 2932 2934 2938 2941 2946 2950 2953 2958 2961 2962 2964 2967 2966 2967 2968 2971 2973 2975 2977 2978 2979 2980 2980 2981 2981 2982 2983 2985 2986 2988 2989 2990 2991 2993
2875 2877 2878 2881 2886 2889 2893 2899 2903 2907 2909 2910 2914 2917 2920 2922 2923 2927 2930 2932 2933 2935 2939 2943 2947 2950 2951 2954 2956 2958 2959 2960 2961 2962 2964 2966 2968 2970 2971 2972 2973 2973 2974 2975 2977 2978 2980 2982 2983 2984 2985 2986 2988 2988
2884 2886 2888 2889 2891 2896 2899 2902 2905 2908 2910 2914 2918 2921 2923 2924 2924 2926 2928 2930 2934 2938 2941 2944 2944 2946 2950 2953 2954 2955 2956 2957 2958 2959 2961 2962 2964 2965 2966 2967 2968 2970 2972 2973 2975 2976 2978 2979 2980 2981 2982 2983 2984 2984
2890 2891 2893 2896 2899 2901 2904 2907 2909 2911 2913 2916 2920 2922 2924 2927 2928 2929 2930 2933 2935 2938 2940 2942 2943 2945 2949 2950 2952 2953 2954 2956 2956 2957 2958 2960 2961 2962 2962 2964 2967 2969 2970 2972 2973 2974 2974 2975 2976 2977 2978 2978 2979 2978
2897 2897 2898 2900 2902 2905 2906 2908 2911 2913 2915 2919 2920 2921 2922 2924 2925 2926 2928 2931 2935 2936 2937 2939 2941 2944 2946 2949 2951 2952 2953 2953 2953 2954 2956 2958 2959 2961 2963 2965 2966 2967 2968 2969 2970 2971 2971 2973 2973 2974 2974 2974 2973 2971
2901 2901 2902 2904 2905 2907 2908 2911 2914 2917 2922 2923 2924 2925 2925 2926 2927 2927 2928 2930 2932 2934 2937 2938 2941 2943 2946 2948 2950 2951 2952 2953 2954 2955 2956 2957 2959 2961 2962 2964 2965 2965 2966 2967 2967 2968 2969 2969 2970 2969 2968 2967 2966 2964
2907 2907 2907 2907 2908 2909 2911 2916 2919 2922 2927 2929 2930 2930 2930 2931 2933 2933 2933 2934 2935 2936 2937 2941 2943 2946 2948 2949 2950 2951 2952 2953 2955 2955 2956 2957 2959 2960 2961 2962 2963 2963 2964 2964 2964 2964 2964 2964 2964 2963 2961 2960 2959 2957
2912 2912 2911 2912 2911 2912 2915 2920 2923 2928 2931 2932 2934 2934 2935 2936 2936 2936 2937 2938 2939 2938 2941 2945 2947 2948 2950 2951 2952 2953 2953 2954 2955 2956 2957 2957 2958 2959 2960 2960 2961 2961 2961 2961 2961 2960 2960 2959 2958 2956 2954 2953 2952 2950
2916 2915 2916 2918 2916 2917 2920 2924 2927 2930 2933 2935 2937 2938 2938 2939 2939 2940 2940 2940 2941 2944 2947 2949 2950 2950 2951 2952 2952 2953 2954 2954 2955 2956 2956 2957 2958 2958 2958 2958 2958 2957 2957 2956 2955 2954 2953 2952 2951 2949 2947 2945 2943 2941
2919 2919 2920 2919 2920 2924 2929 2930 2931 2932 2934 2936 2938 2939 2940 2941 2941 2943 2943 2944 2945 2947 2949 2950 2950 2951 2951 2951 2952 2952 2952 2952 2953 2954 2954 2954 2954 2954 2954 2953 2953 2952 2951 2949 2948 2946 2945 2944 2943 2941 2939 2937 2934 2931
2922 2922 2921 2922 2925 2928 2931 2931 2933 2934 2936 2937 2938 2940 2942 2943 2944 2943 2944 2946 2947 2948 2949 2950 2950 2950 2950 2950 2950 2950 2950 2950 2950 2950 2951 2951 2951 2950 2949 2948 2946 2945 2944 2943 2942 2940 2938 2937 2934 2932 2929 2926 2923 2920
2926 2926 2929 2929 2931 2934 2935 2935 2936 2937 2939 2940 2941 2943 2944 2945 2945 2946 2947 2949 2949 2950 2950 2950 2950 2950 2950 2949 2949 2948 2948 2948 2948 2947 2947 2946 2945 2945 2944 2942 2941 2940 2938 2936 2934 2932 2930 2927 2924 2921 2918 2915 2912 2908
2925 2930 2933 2935 2936 2937 2938 2940 2941 2942 2942 2942 2943 2945 2946 2947 2947 2949 2950 2950 2950 2950 2950 2950 2949 2949 2948 2948 2947 2946 2946 2945 2944 2943 2943 2942 2941 2940 2938 2936 2935 2933 2931 2928 2926 2923 2920 2917 2914 2911 2907 2904 2900 2896
2931 2937 2938 2940 2941 2942 2943 2944 2945 2946 2946 2946 2947 2947 2948 2948 2949 2950 2950 2950 2950 2950 2949 2949 2949 2948 2947 2946 2945 2944 2943 2942 2941 2939 2938 2936 2935 2933 2932 2930 2927 2925 2922 2919 2917 2914 2911 2907 2903 2900 2896 2892 2888 2884
2937 2941 2943 2945 2946 2946 2947 2948 2949 2949 2949 2949 2949 2949 2948 2948 2949 2949 2949 2949 2948 2948 2947 2947 2946 2945 2944 2942 2941 2939 2938 2937 2936 2934 2932 2931 2929 2926 2924 2922 2919 2916 2914 2911 2908 2904 2900 2896 2892 2888 2884 2880 2876 2872
2943 2945 2948 2949 2950 2949 2949 2950 2951 2951 2950 2949 2948 2948 2948 2947 2947 2947 2946 2946 2946 2945 2944 2943 2943 2941 2939 2938 2936 2934 2933 2931 2930 2928 2927 2925 2923 2921 2917 2914 2911 2908 2904 2900 2896 2891 2887 2883 2879 2875 2871 2868 2864 2861
2947 2949 2950 2950 2950 2950 2950 2950 2950 2949 2948 2948 2947 2946 2946 2945 2944 2944 2943 2943 2942 2940 2939 2938 2937 2937 2935 2933 2932 2930 2929 2926 2924 2923 2920 2917 2915 2912 2909 2905 2901 2897 2892 2888 2884 2880 2875 2871 2866 2863 2859 2856 2853 2850
2950 2950 2950 2950 2950 2950 2949 2949 2948 2948 2947 2946 2945 2944 2943 2942 2941 2940 2940 2939 2939 2937 2936 2935 2934 2933 2932 2931 2929 2927 2926 2923 2920 2917 2914 2910 2906 2902 2898 2894 2890 2885 2881 2876 2872 2868 2864 2860 2856 2852 2849 2846 2843 2840
2951 2951 2950 2950 2949 2949 2948 2947 2945 2945 2944 2943 2942 2941 2940 2939 2939 2938 2937 2937 2936 2936 2935 2933 2932 2931 2929 2927 2924 2922 2919 2916 2913 2910 2906 2902 2898 2894 2889 2885 2880 2875 2870 2865 2860 2856 2852 2848 2844 2841 2838 2836 2833 2830
2951 2951 2950 2949 2948 2948 2947 2946 2945 2943 2942 2941 2940 2939 2939 2938 2938 2937 2936 2935 2935 2933 2932 2930 2928 2926 2924 2921 2918 2915 2912 2909 2905 2902 2898 2894 2890 2885 2881 2876 2871 2867 2862 2856 2851 2846 2841 2837 2834 2831 2828 2826 2824 2821